Location: Keppel Henge
(44.7900°N, 80.9447°W)
Time: 11:05:38
(UTC-05:00)

Amateur Radio Satellites - All Passes

Search period start: 23 January 2018 10:35
Search period end: 24 January 2018 10:35
Location: Keppel Henge, 44.7900°N, 80.9447°W

Satellite Date Start Highest point End Downlink Frequencies (MHz)
Time Altitude Azimuth
AO-85 23 Jan 10:41:17 10:43:37 15° 109° (ESE) 10:46:02 145.980
BEESAT 2 23 Jan 10:54:19 10:58:16 54° 309° (NW) 11:02:15 435.950
TIGRISAT 23 Jan 10:57:44 10:58:35 10° 274° (W) 10:59:26 435.000
POLYITAN 1 23 Jan 10:58:42 11:02:37 38° 70° (ENE) 11:06:35 437.675
RS-15 23 Jan 11:02:34 11:13:44 38° 332° (NNW) 11:24:36 29.354- 29.394
LO-87 23 Jan 11:07:37 11:10:43 25° 96° (E) 11:13:46 145.935 - 145.965
ESTCUBE 1 23 Jan 11:10:59 11:14:40 24° 94° (E) 11:18:19 437.505/2401.250
NANOSAT C BR1 23 Jan 11:11:32 11:15:33 45° 71° (ENE) 11:19:38 145.865
YUBILEINY 23 Jan 11:11:35 11:19:52 51° 271° (W) 11:28:07 435.215
BUGSAT 1 23 Jan 11:12:50 11:13:10 10° 58° (ENE) 11:13:32 437.445
O/OREOS (USA 219) 23 Jan 11:13:25 11:16:27 18° 259° (W) 11:19:29 437.305
DELFI C3 23 Jan 11:14:10 11:16:45 17° 295° (WNW) 11:19:19 145.870
Oscar 19 23 Jan 11:14:30 11:15:10 10° 54° (NE) 11:15:50 437.125/150
AIST 2D 23 Jan 11:17:59 11:21:13 34° 263° (W) 11:24:28 435.315
Max Valier Satellite 23 Jan 11:18:57 11:21:37 19° 294° (WNW) 11:24:16 145.860
QB50P2 23 Jan 11:28:18 11:32:33 88° 71° (ENE) 11:36:50 145.880/145.840
EO-88 23 Jan 11:30:58 11:33:42 20° 293° (WNW) 11:36:25 145.990 - 145.960
BEESAT 3 23 Jan 11:41:15 11:42:02 10° 329° (NNW) 11:42:48 437.485
DUCHIFAT 1 23 Jan 11:53:25 11:57:36 73° 258° (WSW) 12:01:52 145.980
EO-79 23 Jan 11:58:24 12:02:30 48° 261° (W) 12:06:38 145.935-145.965
PCSat 23 Jan 11:59:32 12:02:48 16° 326° (NW) 12:06:05 145.827
SPROUT 23 Jan 12:09:54 12:13:27 24° 94° (E) 12:16:57 437.525
AO-85 23 Jan 12:19:30 12:23:27 57° 309° (NW) 12:27:44 145.980
SO-50 23 Jan 12:23:20 12:27:12 25° 40° (NE) 12:31:05 436.795
AO-7 23 Jan 12:28:36 12:33:25 17° 43° (NE) 12:38:14 .
VELOX 1 23 Jan 12:34:30 12:38:06 24° 94° (E) 12:41:41 145.980
POLYITAN 1 23 Jan 12:35:18 12:38:31 21° 267° (W) 12:41:46 437.675
BEESAT 2 23 Jan 12:35:51 12:36:52 11° 329° (NNW) 12:37:54 435.950
LO-87 23 Jan 12:41:06 12:43:59 22° 292° (WNW) 12:46:51 145.935 - 145.965
BUGSAT 1 23 Jan 12:43:43 12:47:48 88° 246° (WSW) 12:52:00 437.445
ESTCUBE 1 23 Jan 12:47:27 12:51:31 35° 292° (WNW) 12:55:35 437.505/2401.250
Oscar 19 23 Jan 12:48:20 12:53:28 65° 72° (ENE) 12:58:38 437.125/150
NANOSAT C BR1 23 Jan 12:48:41 12:51:29 17° 268° (W) 12:54:19 145.865
AO-91 23 Jan 12:51:06 12:54:27 65° 75° (ENE) 12:58:01 145.960
Gurwin Techsat 1B 23 Jan 12:56:42 13:01:54 59° 71° (ENE) 13:07:08 435.225
RS-15 23 Jan 13:20:39 13:30:44 29° 7° (N) 13:40:26 29.354- 29.394
SPROUT 23 Jan 13:45:29 13:49:22 33° 291° (WNW) 13:53:12 437.525
UKube-1 23 Jan 13:59:48 14:03:13 23° 94° (E) 14:06:38 .
ITAMSAT 1 23 Jan 14:02:33 14:06:12 20° 60° (ENE) 14:09:52 435.822/435.867
AO-85 23 Jan 14:03:09 14:04:54 12° 332° (NNW) 14:06:42 145.980
SO-50 23 Jan 14:03:21 14:07:59 58° 239° (WSW) 14:12:40 436.795
VELOX 1 23 Jan 14:10:36 14:14:36 35° 291° (WNW) 14:18:35 145.980
AO-7 23 Jan 14:16:22 14:24:33 62° 64° (ENE) 14:32:46 .
DX 1 23 Jan 14:17:16 14:21:34 57° 101° (E) 14:25:50 434.975-435.025
Oscar 19 23 Jan 14:29:52 14:33:15 17° 270° (W) 14:36:37 437.125/150
Gurwin Techsat 1B 23 Jan 14:38:28 14:42:14 20° 269° (W) 14:46:02 435.225
50 SAT 23 Jan 14:39:58 14:43:04 69° 285° (WNW) 14:46:09 437.505
ITUPSAT 1 23 Jan 14:50:49 14:53:24 14° 90° (E) 14:55:59 437.325
MOZHAYETS 4 23 Jan 14:53:04 14:56:59 27° 94° (E) 15:00:52
BEESAT 23 Jan 15:27:09 15:31:29 32° 97° (E) 15:35:46 436.000
RS-15 23 Jan 15:35:20 15:46:52 51° 39° (NE) 15:57:44 29.354- 29.394
UKube-1 23 Jan 15:35:23 15:39:20 36° 291° (WNW) 15:43:15 .
ITAMSAT 1 23 Jan 15:40:05 15:45:11 62° 258° (WSW) 15:50:20 435.822/435.867
DX 1 23 Jan 15:54:37 15:57:17 16° 299° (WNW) 15:59:58 434.975-435.025
M-CUBED/EXP-1 PRIME 23 Jan 15:58:28 16:02:41 68° 69° (ENE) 16:06:37 437.505
CUTE-I 23 Jan 15:59:24 16:00:42 11° 54° (NE) 16:02:02 437.470
DOVE 4 23 Jan 16:10:15 16:14:27 68° 74° (ENE) 16:18:35 437.250
AO-7 23 Jan 16:10:25 16:17:43 33° 264° (W) 16:25:06 .
XW-2C 23 Jan 16:17:38 16:18:47 11° 62° (ENE) 16:19:56 145.795 - 145.815
LilacSat-2 23 Jan 16:18:43 16:20:25 13° 63° (ENE) 16:22:07 437.200
ITUPSAT 1 23 Jan 16:26:54 16:31:43 69° 286° (WNW) 16:36:28 437.325
MOZHAYETS 4 23 Jan 16:29:59 16:34:10 34° 292° (WNW) 16:38:19
BEESAT 3 23 Jan 16:37:33 16:40:34 21° 41° (NE) 16:43:32 437.485
NO-84 23 Jan 16:38:13 16:41:20 67° 140° (SE) 16:44:17 435.350 FM
CUBESAT XI-V 23 Jan 16:40:32 16:45:11 85° 103° (ESE) 16:49:46 437.345
KAITUO 1B 23 Jan 16:42:48 16:44:56 15° 64° (ENE) 16:47:04 145.475/437.950
NUDT-PHONESAT 23 Jan 16:47:58 16:50:15 16° 65° (ENE) 16:52:31 437.300
XW-2F 23 Jan 16:48:54 16:51:53 22° 67° (ENE) 16:54:52 145.980 - 146.000
HO-68 23 Jan 16:56:18 17:01:58 26° 56° (ENE) 17:07:39 435.675
XW-2D 23 Jan 17:00:44 17:04:11 33° 70° (ENE) 17:07:38 145.860 - 145.880
BEESAT 23 Jan 17:04:58 17:09:10 31° 294° (WNW) 17:13:20 436.000
PCSat 23 Jan 17:16:05 17:20:42 27° 44° (NE) 17:25:18 145.827
XW-2B 23 Jan 17:18:09 17:21:52 50° 73° (ENE) 17:25:34 145.730 - 145.750
BEESAT 2 23 Jan 17:32:52 17:36:01 21° 41° (NE) 17:39:07 435.950
CUTE-I 23 Jan 17:34:31 17:39:46 68° 72° (ENE) 17:45:04 437.470
M-CUBED/EXP-1 PRIME 23 Jan 17:35:43 17:37:20 12° 263° (W) 17:38:56 437.505
KKS-1 23 Jan 17:36:35 17:40:54 47° 100° (E) 17:45:12 437.445
SEEDS 23 Jan 17:37:19 17:39:59 17° 64° (ENE) 17:42:38 437.485
STARS 23 Jan 17:44:14 17:47:46 23° 94° (E) 17:51:16 437.465
RS-15 23 Jan 17:48:18 17:59:38 60° 246° (WSW) 18:10:24 29.354- 29.394
XW-2C 23 Jan 17:48:36 17:52:25 67° 260° (W) 17:56:14 145.795 - 145.815
LilacSat-2 23 Jan 17:50:24 17:54:13 58° 260° (W) 17:58:01 437.200
DOVE 4 23 Jan 17:51:34 17:52:36 11° 271° (W) 17:53:39 437.250
CUTE 1.7 + AOD 2 23 Jan 17:54:25 17:58:23 39° 71° (ENE) 18:02:21 437.475
BEESAT 3 23 Jan 18:14:32 18:18:20 49° 240° (WSW) 18:22:03 437.485
KAITUO 1B 23 Jan 18:14:55 18:18:32 45° 261° (W) 18:22:09 145.475/437.950
NO-84 23 Jan 18:16:26 18:18:44 20° 338° (NNW) 18:20:57 435.350 FM
CUBESAT XI-V 23 Jan 18:19:58 18:21:51 12° 301° (WNW) 18:23:44 437.345
NUDT-PHONESAT 23 Jan 18:20:12 18:23:44 41° 262° (W) 18:27:18 437.300
XW-2F 23 Jan 18:22:30 18:25:50 29° 264° (W) 18:29:10 145.980 - 146.000
XW-2D 23 Jan 18:35:39 18:38:25 19° 267° (W) 18:41:12 145.860 - 145.880
UWE-3 23 Jan 18:36:56 18:41:09 41° 70° (ENE) 18:45:29 435.000/436.395/437.385
CUBEBUG 2 23 Jan 18:37:54 18:42:19 74° 75° (ENE) 18:46:55 437.445
HO-68 23 Jan 18:41:58 18:49:07 71° 256° (WSW) 18:56:17 435.675
AAUSAT CUBESAT 2 23 Jan 18:43:29 18:47:13 33° 70° (ENE) 18:50:56 437.432
ZACube-1 23 Jan 18:53:45 18:57:47 33° 69° (ENE) 19:01:54 437.345
XW-2B 23 Jan 18:54:34 18:56:19 13° 270° (W) 18:58:04 145.730 - 145.750
AO-73 23 Jan 18:58:34 19:02:35 33° 68° (ENE) 19:06:40 145.935
PCSat 23 Jan 18:59:07 19:04:26 57° 244° (WSW) 19:09:43 145.827
AO-85 23 Jan 19:07:58 19:12:21 32° 45° (NE) 19:17:00 145.980
BEESAT 2 23 Jan 19:10:06 19:13:59 49° 240° (WSW) 19:17:47 435.950
SEEDS 23 Jan 19:11:10 19:15:16 51° 261° (W) 19:19:23 437.485
KKS-1 23 Jan 19:13:54 19:17:07 20° 297° (WNW) 19:20:20 437.445
STRAND 1 23 Jan 19:14:53 19:19:25 30° 96° (E) 19:23:54 437.568
CUTE-I 23 Jan 19:16:56 19:20:18 17° 270° (W) 19:23:42 437.470
STARS 23 Jan 19:20:07 19:24:12 37° 291° (WNW) 19:28:16 437.465
XW-2A 23 Jan 19:25:12 19:28:37 85° 75° (ENE) 19:32:03 145.665 - 145.685
Oscar 11 23 Jan 19:28:15 19:32:20 41° 71° (ENE) 19:36:26 .
CUTE 1.7 + AOD 2 23 Jan 19:31:10 19:34:21 20° 268° (W) 19:37:32 437.475
nSIGHT-1 23 Jan 19:38:31 19:41:27 35° 141° (SE) 19:44:23 .
NO-84 23 Jan 19:55:50 19:56:46 11° 360° (N) 19:57:41 435.350 FM
ISS 23 Jan 20:04:29 20:07:35 43° 143° (SE) 20:10:43 437.550
RS-15 23 Jan 20:05:35 20:09:09 12° 268° (W) 20:12:41 29.354- 29.394
UWE-3 23 Jan 20:14:20 20:17:46 21° 268° (W) 20:21:17 435.000/436.395/437.385
CUBEBUG 2 23 Jan 20:17:48 20:19:30 12° 273° (W) 20:21:14 437.445
AAUSAT CUBESAT 2 23 Jan 20:19:29 20:22:43 22° 267° (W) 20:25:56 437.432
DELFI C3 23 Jan 20:25:20 20:28:45 30° 70° (ENE) 20:32:12 145.870
Max Valier Satellite 23 Jan 20:25:21 20:28:06 20° 67° (ENE) 20:30:51 145.860
FO-29 23 Jan 20:28:35 20:33:44 60° 101° (E) 20:38:58 435.910
ZACube-1 23 Jan 20:30:17 20:34:05 26° 266° (W) 20:37:57 437.345
AO-73 23 Jan 20:35:00 20:38:49 27° 266° (W) 20:42:41 145.935
HO-68 23 Jan 20:35:18 20:38:04 12° 275° (W) 20:40:51 435.675
EO-88 23 Jan 20:36:42 20:39:10 17° 66° (ENE) 20:41:38 145.990 - 145.960
AO-85 23 Jan 20:48:11 20:52:56 45° 242° (WSW) 20:57:55 145.980
STRAND 1 23 Jan 20:53:55 20:58:37 37° 293° (WNW) 21:03:18 437.568
Oscar 11 23 Jan 21:05:25 21:08:38 20° 268° (W) 21:11:51 .
TIGRISAT 23 Jan 21:07:25 21:10:25 17° 90° (E) 21:13:23 435.000
nSIGHT-1 23 Jan 21:14:35 21:17:35 39° 339° (NNW) 21:20:36 .
UNISAT 6 23 Jan 21:22:55 21:26:50 25° 94° (E) 21:30:43 437.425
NO-84 23 Jan 21:32:39 21:34:49 19° 22° (NNE) 21:36:58 435.350 FM
ISS 23 Jan 21:41:02 21:44:06 37° 341° (NNW) 21:47:12 437.550
LO-87 23 Jan 21:45:59 21:48:02 15° 65° (ENE) 21:50:05 145.935 - 145.965
Max Valier Satellite 23 Jan 21:58:20 22:01:42 31° 263° (W) 22:05:06 145.860
DELFI C3 23 Jan 22:00:28 22:03:31 22° 266° (W) 22:06:35 145.870
EO-88 23 Jan 22:09:10 22:12:32 34° 262° (W) 22:15:55 145.990 - 145.960
PRISM 23 Jan 22:11:11 22:13:36 15° 92° (E) 22:16:01 437.425
ESTCUBE 1 23 Jan 22:12:02 22:15:54 29° 67° (ENE) 22:19:47 437.505/2401.250
FO-29 23 Jan 22:14:52 22:18:26 19° 300° (WNW) 22:22:00 435.910
YUBILEINY 23 Jan 22:18:09 22:26:12 42° 86° (E) 22:34:13 435.215
AIST 2D 23 Jan 22:41:37 22:43:32 14° 92° (E) 22:45:26 435.315
TIGRISAT 23 Jan 22:42:49 22:47:27 58° 287° (WNW) 22:52:02 435.000
nSIGHT-1 23 Jan 22:51:43 22:54:18 23° 359° (N) 22:56:54 .
UNISAT 6 23 Jan 22:59:16 23:03:37 37° 291° (WNW) 23:07:54 437.425
SPROUT 23 Jan 23:04:50 23:08:15 24° 66° (ENE) 23:11:41 437.525
NO-84 23 Jan 23:09:23 23:12:10 62° 221° (SW) 23:15:03 435.350 FM
QB50P2 23 Jan 23:12:54 23:14:52 13° 90° (E) 23:16:48 145.880/145.840
LO-87 23 Jan 23:17:42 23:21:05 40° 262° (W) 23:24:30 145.935 - 145.965
ISS 23 Jan 23:18:27 23:21:10 23° 1° (N) 23:23:55 437.550
VELOX 1 23 Jan 23:33:19 23:37:01 27° 66° (ENE) 23:40:43 145.980
DUCHIFAT 1 23 Jan 23:36:30 23:39:05 16° 91° (E) 23:41:38 145.980
EO-79 23 Jan 23:41:22 23:44:48 23° 94° (E) 23:48:13 145.935-145.965
PRISM 23 Jan 23:45:11 23:49:07 48° 288° (WNW) 23:53:03 437.425
O/OREOS (USA 219) 23 Jan 23:47:15 23:51:26 39° 107° (ESE) 23:55:38 437.305
ESTCUBE 1 23 Jan 23:48:36 23:52:37 31° 264° (W) 23:56:39 437.505/2401.250
AIST 2D 24 Jan 00:13:37 00:16:50 36° 288° (WNW) 00:20:02 435.315
YUBILEINY 24 Jan 00:14:26 00:22:52 48° 287° (WNW) 00:31:18 435.215
POLYITAN 1 24 Jan 00:16:44 00:20:58 54° 100° (E) 00:25:10 437.675
BUGSAT 1 24 Jan 00:25:20 00:27:00 12° 89° (E) 00:28:41 437.445
nSIGHT-1 24 Jan 00:28:03 00:31:03 36° 19° (NNE) 00:34:02 .
NANOSAT C BR1 24 Jan 00:29:04 00:33:20 66° 101° (ESE) 00:37:33 145.865
AO-91 24 Jan 00:38:42 00:41:16 14° 91° (E) 00:43:57 145.960
SPROUT 24 Jan 00:40:05 00:43:58 34° 263° (W) 00:47:52 437.525
QB50P2 24 Jan 00:46:47 00:51:03 63° 286° (WNW) 00:55:16 145.880/145.840
ISS 24 Jan 00:55:05 00:58:13 41° 21° (NNE) 01:01:21 437.550
UKube-1 24 Jan 00:55:50 00:59:21 25° 66° (ENE) 01:02:52 .
Oscar 19 24 Jan 00:58:56 01:02:38 19° 91° (E) 01:06:16 437.125/150
50 SAT 24 Jan 01:05:38 01:08:29 36° 72° (ENE) 01:11:22 437.505
VELOX 1 24 Jan 01:09:28 01:13:21 31° 263° (W) 01:17:16 145.980
DUCHIFAT 1 24 Jan 01:10:53 01:15:01 51° 288° (WNW) 01:19:08 145.980
Gurwin Techsat 1B 24 Jan 01:11:50 01:15:40 20° 91° (E) 01:19:30 435.225
DX 1 24 Jan 01:14:09 01:18:25 62° 73° (ENE) 01:22:43 434.975-435.025
EO-79 24 Jan 01:16:43 01:20:37 34° 291° (WNW) 01:24:29 145.935-145.965
O/OREOS (USA 219) 24 Jan 01:27:17 01:30:58 24° 305° (NW) 01:34:40 437.305
POLYITAN 1 24 Jan 01:53:38 01:56:18 16° 298° (WNW) 01:58:58 437.675
MOZHAYETS 4 24 Jan 01:56:24 02:00:31 32° 68° (ENE) 02:04:39
BUGSAT 1 24 Jan 01:58:33 02:02:47 67° 286° (WNW) 02:07:00 437.445
ITUPSAT 1 24 Jan 01:58:51 02:02:29 22° 63° (ENE) 02:06:08 437.325
nSIGHT-1 24 Jan 02:04:13 02:07:15 41° 217° (SW) 02:10:16 .
NANOSAT C BR1 24 Jan 02:06:19 02:08:30 14° 299° (WNW) 02:10:40 145.865
CUBESAT XI-V 24 Jan 02:10:55 02:13:06 13° 59° (ENE) 02:15:16 437.345
AO-91 24 Jan 02:13:27 02:18:00 70° 285° (WNW) 02:23:01 145.960
AO-7 24 Jan 02:17:58 02:22:35 16° 87° (E) 02:27:10 .
YUBILEINY 24 Jan 02:22:05 02:22:25 10° 313° (NW) 02:22:45 435.215
UKube-1 24 Jan 02:31:21 02:35:13 33° 263° (W) 02:39:07 .
ISS 24 Jan 02:31:38 02:34:40 35° 219° (SW) 02:37:42 437.550
BEESAT 24 Jan 02:35:00 02:39:32 47° 70° (ENE) 02:44:07 436.000
Oscar 19 24 Jan 02:37:14 02:42:18 57° 289° (WNW) 02:47:19 437.125/150
50 SAT 24 Jan 02:39:31 02:40:22 11° 269° (W) 02:41:11 437.505
Gurwin Techsat 1B 24 Jan 02:50:46 02:56:00 58° 289° (WNW) 03:01:11 435.225
DX 1 24 Jan 02:52:55 02:55:01 13° 270° (W) 02:57:06 434.975-435.025
FALCONSAT 3 24 Jan 03:05:51 03:07:32 13° 163° (SSE) 03:09:14 435.103
MOZHAYETS 4 24 Jan 03:33:37 03:37:38 29° 265° (W) 03:41:41
ITUPSAT 1 24 Jan 03:35:22 03:39:59 48° 260° (W) 03:44:39 437.325
CUBESAT XI-V 24 Jan 03:45:06 03:49:48 82° 257° (WSW) 03:54:31 437.345
ITAMSAT 1 24 Jan 03:51:00 03:55:53 39° 98° (E) 04:00:45 435.822/435.867
DOVE 4 24 Jan 04:07:21 04:10:06 16° 92° (E) 04:12:55 437.250
AO-7 24 Jan 04:08:17 04:16:42 76° 107° (ESE) 04:25:02 .
BEESAT 24 Jan 04:13:57 04:17:32 21° 267° (W) 04:21:08 436.000
SO-50 24 Jan 04:19:38 04:23:26 28° 115° (ESE) 04:27:18 436.795
KKS-1 24 Jan 04:36:03 04:40:21 54° 72° (ENE) 04:44:41 437.445
STARS 24 Jan 04:42:27 04:46:03 26° 66° (ENE) 04:49:41 437.465
FALCONSAT 3 24 Jan 04:43:12 04:45:53 19° 179° (S) 04:48:32 435.103
M-CUBED/EXP-1 PRIME 24 Jan 05:09:30 05:12:24 27° 102° (ESE) 05:15:13 437.505
XW-2C 24 Jan 05:21:24 05:22:21 11° 89° (E) 05:23:18 145.795 - 145.815
LilacSat-2 24 Jan 05:23:12 05:24:55 13° 90° (E) 05:26:36 437.200
ITAMSAT 1 24 Jan 05:30:45 05:35:12 29° 296° (WNW) 05:39:39 435.822/435.867
DOVE 4 24 Jan 05:43:45 05:48:03 55° 287° (WNW) 05:52:36 437.250
KAITUO 1B 24 Jan 05:44:57 05:47:00 14° 91° (E) 05:49:04 145.475/437.950
NUDT-PHONESAT 24 Jan 05:49:04 05:51:13 15° 91° (E) 05:53:21 437.300
CUTE-I 24 Jan 05:50:13 05:54:24 23° 93° (E) 05:58:34 437.470
XW-2F 24 Jan 05:52:21 05:55:23 23° 94° (E) 05:58:22 145.980 - 146.000
SO-50 24 Jan 05:59:33 06:03:45 39° 314° (NW) 06:08:02 436.795
AO-7 24 Jan 06:01:53 06:08:44 29° 307° (NW) 06:15:33 .
RS-15 24 Jan 06:04:35 06:12:50 21° 98° (E) 06:21:00 29.354- 29.394
XW-2D 24 Jan 06:04:57 06:08:26 36° 97° (E) 06:11:54 145.860 - 145.880
HO-68 24 Jan 06:08:40 06:13:49 21° 90° (E) 06:18:55 435.675
KKS-1 24 Jan 06:14:32 06:17:14 16° 269° (W) 06:19:56 437.445
STARS 24 Jan 06:18:21 06:22:15 32° 263° (W) 06:26:13 437.465
FALCONSAT 3 24 Jan 06:22:11 06:24:15 14° 194° (SSW) 06:26:18 435.103
XW-2B 24 Jan 06:22:33 06:26:16 57° 101° (E) 06:29:56 145.730 - 145.750
CUBEBUG 2 24 Jan 06:27:57 06:30:46 15° 89° (E) 06:33:32 437.445
STRAND 1 24 Jan 06:32:22 06:37:17 51° 70° (ENE) 06:42:14 437.568
FO-29 24 Jan 06:42:29 06:48:15 35° 67° (ENE) 06:53:28 435.910
M-CUBED/EXP-1 PRIME 24 Jan 06:44:20 06:46:39 18° 300° (WNW) 06:48:54 437.505
XW-2C 24 Jan 06:53:11 06:56:53 57° 286° (WNW) 07:00:32 145.795 - 145.815
SEEDS 24 Jan 06:53:19 06:56:37 22° 93° (E) 06:59:52 437.485
LilacSat-2 24 Jan 06:55:48 06:59:28 49° 287° (WNW) 07:03:05 437.200
CUTE 1.7 + AOD 2 24 Jan 07:12:37 07:16:48 60° 101° (E) 07:20:56 437.475
KAITUO 1B 24 Jan 07:17:42 07:21:11 40° 288° (WNW) 07:24:38 145.475/437.950
NUDT-PHONESAT 24 Jan 07:21:47 07:25:14 38° 288° (WNW) 07:28:37 437.300
XW-2F 24 Jan 07:26:18 07:29:26 26° 292° (WNW) 07:32:33 145.980 - 146.000
CUTE-I 24 Jan 07:29:34 07:34:43 51° 290° (WNW) 07:39:50 437.470
XW-2D 24 Jan 07:39:48 07:42:20 17° 295° (WNW) 07:44:51 145.860 - 145.880
SO-50 24 Jan 07:44:47 07:45:31 10° 336° (NNW) 07:46:15 436.795
HO-68 24 Jan 07:55:06 08:02:17 79° 289° (WNW) 08:09:27 435.675
AAUSAT CUBESAT 2 24 Jan 07:58:19 08:02:18 48° 99° (E) 08:06:16 437.432
XW-2B 24 Jan 07:58:26 07:59:57 12° 298° (WNW) 08:01:27 145.730 - 145.750
UWE-3 24 Jan 08:00:29 08:05:11 72° 102° (ESE) 08:09:45 435.000/436.395/437.385
PCSat 24 Jan 08:02:14 08:04:50 14° 103° (ESE) 08:07:28 145.827
CUBEBUG 2 24 Jan 08:03:03 08:07:47 64° 286° (WNW) 08:12:27 437.445
BEESAT 3 24 Jan 08:06:23 08:08:49 16° 111° (ESE) 08:11:14 437.485
TIGRISAT 24 Jan 08:07:55 08:10:57 18° 62° (ENE) 08:14:03 435.000
RS-15 24 Jan 08:11:03 08:23:21 78° 120° (ESE) 08:35:27 29.354- 29.394
STRAND 1 24 Jan 08:12:56 08:16:45 21° 268° (W) 08:20:35 437.568
ZACube-1 24 Jan 08:15:45 08:20:14 54° 100° (E) 08:24:36 437.345
O/OREOS (USA 219) 24 Jan 08:17:03 08:19:33 15° 48° (NE) 08:22:05 437.305
XW-2A 24 Jan 08:17:13 08:20:34 67° 101° (ESE) 08:23:52 145.665 - 145.685
AO-73 24 Jan 08:20:09 08:24:36 53° 99° (E) 08:28:55 145.935
UNISAT 6 24 Jan 08:23:22 08:27:08 27° 66° (ENE) 08:30:59 437.425
YUBILEINY 24 Jan 08:25:57 08:32:32 23° 61° (ENE) 08:39:02 435.215
FO-29 24 Jan 08:27:03 08:33:16 41° 261° (W) 08:38:51 435.910
SEEDS 24 Jan 08:28:36 08:32:21 33° 291° (WNW) 08:36:05 437.485
Oscar 11 24 Jan 08:49:10 08:53:29 66° 101° (E) 08:57:46 .
CUTE 1.7 + AOD 2 24 Jan 08:49:52 08:52:09 14° 298° (WNW) 08:54:23 437.475
PRISM 24 Jan 09:02:26 09:04:44 15° 62° (ENE) 09:07:02 437.425
BEESAT 2 24 Jan 09:03:27 09:06:04 17° 111° (ESE) 09:08:41 435.950
Max Valier Satellite 24 Jan 09:26:23 09:29:07 19° 93° (E) 09:31:49 145.860
DELFI C3 24 Jan 09:34:08 09:37:49 37° 98° (E) 09:41:29 145.870
AAUSAT CUBESAT 2 24 Jan 09:34:47 09:37:22 16° 296° (WNW) 09:39:58 437.432
EO-88 24 Jan 09:36:14 09:38:34 16° 92° (E) 09:40:53 145.990 - 145.960
UWE-3 24 Jan 09:38:26 09:41:01 15° 299° (WNW) 09:43:34 435.000/436.395/437.385
BEESAT 3 24 Jan 09:42:00 09:45:55 54° 308° (NW) 09:49:51 437.485
PCSat 24 Jan 09:42:01 09:47:26 89° 302° (WNW) 09:52:54 145.827
TIGRISAT 24 Jan 09:42:50 09:47:12 54° 260° (W) 09:51:43 435.000
HO-68 24 Jan 09:44:24 09:48:56 18° 309° (NW) 09:53:29 435.675
ZACube-1 24 Jan 09:53:02 09:56:04 18° 297° (WNW) 09:59:03 437.345
O/OREOS (USA 219) 24 Jan 09:55:04 09:59:33 77° 247° (WSW) 10:04:01 437.305
AO-73 24 Jan 09:57:21 10:00:24 18° 297° (WNW) 10:03:25 145.935
UNISAT 6 24 Jan 09:59:40 10:03:43 33° 264° (W) 10:07:52 437.425
QB50P2 24 Jan 10:07:29 10:09:31 13° 61° (ENE) 10:11:35 145.880/145.840
Oscar 11 24 Jan 10:26:53 10:29:05 14° 299° (WNW) 10:31:17 .
DUCHIFAT 1 24 Jan 10:30:11 10:32:42 16° 62° (ENE) 10:35:12 145.980
